GW4137 Weather Reports


time (UTC)temp
F
wind
direction
speed
knots
gust
knots
rain 1hr
in
rain 24hr
in
rain mn
in
humidity
%
barometer
mb
20260508054636 51 294 4.3 8.7 0.00 0.00 0.00 60 1011.9
20260508053056 51 286 3.5 7.0 0.00 0.00 0.00 59 1011.6
20260508051554 52 285 5.2 7.8 0.00 0.00 0.00 58 1011.6
20260508050051 53 288 4.3 7.8 0.00 0.00 0.00 56 1011.8
20260508044553 52 285 4.3 7.0 0.00 0.00 0.00 59 1011.8
20260508043056 53 0 0.0 6.1 0.00 0.00 0.00 61 1011.8
20260508041552 54 0 1.7 5.2 0.00 0.00 0.00 59 1011.8
20260508040047 54 278 0.9 7.0 0.00 0.00 0.00 59 1011.9
20260508034552 54 0 0.0 5.2 0.00 0.00 0.00 59 1012.0
20260508033055 56 272 3.5 7.8 0.00 0.00 0.00 57 1012.0
20260508031559 56 279 4.3 7.8 0.00 0.00 0.00 55 1011.9
20260508030108 57 266 4.3 7.8 0.00 0.00 0.00 53 1011.8
20260508024604 58 266 5.2 11.3 0.00 0.00 0.00 52 1011.6
20260508023052 58 265 6.1 15.6 0.00 0.00 0.00 57 1011.2
20260508021556 61 255 7.0 9.6 0.00 0.00 0.00 45 1011.0
20260508020105 62 252 2.6 6.1 0.00 0.00 0.00 40 1010.9
20260508014552 63 0 0.0 4.3 0.00 0.00 0.00 39 1010.8
20260508013059 64 246 2.6 7.0 0.00 0.00 0.00 38 1010.7
20260508011552 65 244 4.3 11.3 0.00 0.00 0.00 38 1010.7
20260508010052 64 248 4.3 10.4 0.00 0.00 0.00 41 1010.8
20260508004549 64 244 2.6 13.0 0.00 0.00 0.00 42 1010.8
20260508003051 65 252 5.2 10.4 0.00 0.00 0.00 39 1011.0
20260508001551 66 246 7.0 13.0 0.00 0.00 0.00 38 1010.9
20260508000051 65 240 11.3 19.1 0.00 0.00 0.00 43 1010.8
20260507234551 65 271 14.8 21.7 0.00 0.00 0.00 41 1010.6
20260507233050 65 264 10.4 18.2 0.00 0.00 0.00 40 1010.5
20260507231555 67 0 5.2 13.0 0.00 0.00 0.00 29 1010.5
20260507230050 68 323 7.0 15.6 0.00 0.00 0.00 29 1010.4
20260507224556 68 352 5.2 13.0 0.00 0.00 0.00 29 1010.6
20260507223054 67 346 7.0 14.8 0.00 0.00 0.00 30 1010.7
20260507221556 68 280 7.8 13.0 0.00 0.00 0.00 30 1010.6
20260507220058 68 269 3.5 8.7 0.00 0.00 0.00 30 1010.7
20260507214558 68 336 2.6 14.8 0.00 0.00 0.00 30 1011.0
20260507213100 68 333 11.3 18.2 0.00 0.00 0.00 30 1011.1
20260507211556 68 338 5.2 14.8 0.00 0.00 0.00 30 1011.1
20260507204552 67 310 7.8 17.4 0.00 0.00 0.00 30 1011.2
20260507203100 68 252 5.2 15.6 0.00 0.00 0.00 29 1011.2
20260507201552 67 323 8.7 16.5 0.00 0.00 0.00 30 1011.2
20260507200050 66 328 7.0 13.0 0.00 0.00 0.00 31 1011.2
20260507194554 65 309 7.0 14.8 0.00 0.00 0.00 34 1011.3
20260507193053 65 326 7.8 13.0 0.00 0.00 0.00 32 1011.3
20260507191552 67 352 9.6 16.5 0.00 0.00 0.00 31 1011.1
20260507190050 65 301 7.0 13.9 0.00 0.00 0.00 34 1011.2
20260507184548 67 343 7.0 13.9 0.00 0.00 0.00 32 1011.2
20260507183050 66 289 8.7 17.4 0.00 0.00 0.00 33 1011.3
20260507181549 65 338 11.3 15.6 0.00 0.00 0.00 35 1011.5
20260507180058 66 349 7.8 14.8 0.00 0.00 0.00 34 1011.5
20260507174603 64 291 7.0 11.3 0.00 0.00 0.00 38 1011.5
20260507173050 65 292 8.7 17.4 0.00 0.00 0.00 37 1011.8
20260507171610 65 315 4.3 15.6 0.00 0.00 0.00 36 1011.8
20260507170051 64 288 5.2 15.6 0.00 0.00 0.00 38 1011.9
20260507164552 64 313 10.4 16.5 0.00 0.00 0.00 37 1011.8
20260507163051 63 319 7.0 13.0 0.00 0.00 0.00 38 1012.0
20260507161551 63 327 6.1 13.0 0.00 0.00 0.00 37 1011.8
20260507160054 62 0 6.1 9.6 0.00 0.00 0.00 39 1011.8
20260507154550 61 311 3.5 8.7 0.00 0.00 0.00 40 1011.6
20260507153101 60 347 1.7 6.1 0.00 0.00 0.00 42 1011.8
20260507151551 59 306 0.0 6.1 0.00 0.00 0.00 42 1011.6
20260507150055 59 306 3.5 7.0 0.00 0.00 0.00 40 1011.7
20260507144556 57 0 3.5 7.8 0.00 0.00 0.00 43 1011.8
20260507143058 55 315 6.1 10.4 0.00 0.00 0.00 45 1011.6
20260507141552 53 297 7.0 13.0 0.00 0.00 0.00 46 1011.6
20260507140105 52 292 5.2 10.4 0.00 0.00 0.00 48 1011.5
20260507134555 51 319 10.4 13.9 0.00 0.00 0.00 49 1011.3
20260507133058 50 324 8.7 12.2 0.00 0.00 0.00 50 1010.9
20260507131556 48 324 9.6 13.0 0.00 0.00 0.00 52 1010.9
20260507130108 45 333 3.5 8.7 0.00 0.00 0.00 58 1011.1
20260507124634 43 326 2.6 4.3 0.00 0.00 0.00 60 1010.9
20260507123050 42 325 2.6 4.3 0.00 0.00 0.00 58 1010.6
20260507121554 43 321 3.5 7.0 0.00 0.00 0.00 56 1010.5
20260507120054 44 316 2.6 5.2 0.00 0.00 0.00 56 1010.3
20260507114609 43 17 0.9 3.5 0.00 0.00 0.00 57 1010.3
20260507113058 43 0 0.0 2.6 0.00 0.00 0.00 57 1010.2
20260507111558 43 0 0.0 3.5 0.00 0.00 0.00 56 1010.1
20260507110050 43 0 0.0 4.3 0.00 0.00 0.00 53 1010.3
20260507104556 45 15 0.0 15.6 0.00 0.00 0.00 50 1010.0
20260507103055 43 0 4.3 9.6 0.00 0.00 0.00 55 1009.7
20260507101556 42 34 1.7 8.7 0.00 0.00 0.00 55 1010.0
20260507100055 44 0 0.0 2.6 0.00 0.00 0.00 52 1010.0
20260507094548 45 0 0.0 2.6 0.00 0.00 0.00 50 1009.7
20260507093052 46 35 2.6 9.6 0.00 0.00 0.00 47 1009.6
20260507091553 45 34 6.1 8.7 0.00 0.00 0.00 53 1009.5
20260507090052 45 15 2.6 6.1 0.00 0.00 0.00 52 1009.2
20260507084555 44 15 3.5 6.1 0.00 0.00 0.00 53 1008.9
20260507083054 44 15 2.6 6.1 0.00 0.00 0.00 52 1008.9
20260507081548 43 349 2.6 4.3 0.00 0.00 0.00 50 1008.9
20260507080100 45 345 3.5 4.3 0.00 0.00 0.00 49 1008.6
20260507074610 47 0 0.0 2.6 0.00 0.00 0.00 47 1008.6
20260507073052 46 342 4.3 8.7 0.00 0.00 0.00 47 1008.5
20260507071553 48 35 2.6 4.3 0.00 0.00 0.00 44 1008.4
20260507070107 50 31 2.6 9.6 0.00 0.00 0.00 41 1008.3
20260507064550 53 89 8.7 13.0 0.00 0.00 0.00 37 1008.2
20260507063056 55 57 12.2 17.4 0.00 0.00 0.00 33 1008.2
20260507061553 55 16 14.8 23.5 0.00 0.00 0.00 32 1008.7